Location: Owl River
(54.8872°N, 111.8867°W)
Time: 19:55:30
(UTC+00:00)

ISS - Visible Passes

Search period start: 30 November 2023 00:00
Search period end: 10 December 2023 00:00
Orbit: 416 x 417 km, 51.6° (Epoch: 30 November)

Date Brightness Start Highest point End Pass type
(mag) Time Alt. Az. Time Alt. Az. Time Alt. Az.
30 Nov -2.7 01:00:34 10° W 01:03:46 40° SSW 01:05:35 21° SE visible
30 Nov -0.7 02:37:40 10° WSW 02:38:30 14° WSW 02:38:30 14° WSW visible
01 Dec -2.8 00:12:14 10° W 00:15:28 45° S 00:18:42 10° ESE visible
01 Dec -1.7 01:49:05 10° W 01:51:46 22° SSW 01:52:17 22° SSW visible
02 Dec -1.9 01:00:33 10° W 01:03:30 28° SSW 01:06:08 12° SE visible
03 Dec -2.2 00:12:04 10° W 00:15:10 35° SSW 00:18:15 10° SE visible
03 Dec -0.8 01:49:35 10° WSW 01:51:14 13° SW 01:52:52 10° S visible
04 Dec -1.0 01:00:36 10° WSW 01:02:57 18° SSW 01:05:17 10° SSE visible
05 Dec -1.3 00:11:49 10° W 00:14:34 23° SSW 00:17:18 10° SSE visible
07 Dec -0.6 00:11:51 10° WSW 00:13:38 14° SW 00:15:24 10° S visible
